Other Surface Observations
Issued by NWS Tucson, AZ

Home | Current Version | Previous Version | Text Only | Print | Product List | Glossary On
Versions: 1 2 3 4 5 6 7 8 9 10 11 12 13 14 15 16 17 18 19 20 21 22 23 24 25 26 27 28 29 30 31 32 33 34 35 36 37 38 39 40 41 42 43 44 45 46 47 48 49 50
122
SXUS55 KTWC 081915
OSOTWC

WEATHER ROUNDUP FOR SOUTHEAST ARIZONA
NATIONAL WEATHER SERVICE TUCSON AZ
1215 PM MST MON FEB 08 2016

AZZ504>506-514-082015-
LOCATION       SKY/WX    TMP DP  RH WIND       PRES   REMARKS
TUCSON         SUNNY     77  14   9 E18G30    30.22F
DAVIS-MONTHAN  SUNNY     74  18  12 E13       30.20F
CHILDRENS PARK N/A      N/A N/A  17 N1                PIMA CO DEQ
ALVERNON/22ND  N/A       72 N/A N/A E5                PIMA CO DEQ
CHERRY/GLENN   N/A       71 N/A N/A SE4               PIMA CO DEQ
TANGERINE      N/A       67 N/A N/A W4                PIMA CO DEQ
CONTL RANCH    N/A       66  24  20 NE3               PIMA CO DEQ
GRANT/1ST      N/A       69  24  18 SE2               PIMA CO DEQ
CRAYCROFT/22ND N/A       72  18  13 N/A               PIMA CO DEQ
GOLFLINKS/KOLB N/A       71  18  13 E2                PIMA CO DEQ
AJO/12TH       N/A       72  17  12 SE9               PIMA CO DEQ
SAGUARO EAST   N/A       22 -20  13 N/A               PIMA CO DEQ
FAIRGROUNDS    N/A       68 N/A N/A SE21              PIMA CO DEQ
SAGUARO        N/A       78  19  11 E9G21             *SABINO CYN
SAN CARLOS     N/A       57  27  31 S8G11             *SAN CARLOS
GREEN VALLEY   N/A       65  18  16 S4                PIMA CO DEQ
HORSE CAMP CYN N/A       63  21  20 E18G25            *ARAVAIPA CYN
RINCON MTNS    N/A       49  12  22 NE14G23           *NR MANNING CAMP
$$

AZZ509>511-082015-
LOCATION       SKY/WX    TMP DP  RH WIND       PRES   REMARKS
SAFFORD        SUNNY     63  20  19 SE7       30.34F
STRAY HORSE    N/A       57  16  20 SE4               *
TRAIL CABIN    N/A       58  13  17 E6G12             *N OF GRANVILLE
BLACK HILLS    N/A       62  24  23 S2                *N OF FT THOMAS
DRY LAKE       N/A       60  14  16 E4                *NATANES MTNS
NOON CREEK     N/A       64  18  17 SE4G12            *PINALENO MTNS
COLUMBINE      N/A       63   3   9 S2                *PINALENO MTNS
GUTHRIE        N/A       56  18  22 NE4G10            *SW OF GUTHRIE
$$

AZZ502-503-513-082015-
LOCATION       SKY/WX    TMP DP  RH WIND       PRES   REMARKS
NOGALES        SUNNY     73  13  10 E14G21    30.24F
SELLS          N/A       70  25  18 SW7G10            *
SASABE         N/A       73  15  11 NE9G15            *ALTAR VLY
HOPKINS        N/A       59   6  12 E30G46            *SANTA RITA MTNS
CARR CYN       N/A       65  18  16 E5G14             *W OF HEREFORD
$$

AZZ507-508-512-082015-
LOCATION       SKY/WX    TMP DP  RH WIND       PRES   REMARKS
SIERRA VISTA   SUNNY     66  13  13 E8G17     30.33F
DOUGLAS        MOSUNNY   68  17  14 E16       30.32F
EMPIRE MTNS    N/A       67  15  13 E13G21            *LAS CIENEGAS NCA
MULESHOE RANCH N/A       62  18  18 E12G30            *PRESERVE
HEADQUARTERS   N/A       57  16  20 E10G23            *CHIRICAHUA MTNS
$$

.............................NOTES.............................
THIS IS AN AUTOMATED COLLECTIVE WITH MINIMAL QUALITY CONTROL.
PIMA CO DEQ SITES HAVE NONSTANDARD WIND SENSOR HEIGHTS.
PIMA CO DEQ SITES DO NOT REPORT WIND GUSTS.
* INDICATES WIND SENSORS LOCATED AT 20 FEET INSTEAD OF 33 FEET.
..............................KEY..............................
SKY/WX - SKY CONDITION/WEATHER
TMP    - TEMPERATURE IN FAHRENHEIT
DP     - DEWPOINT IN FAHRENHEIT
RH     - RELATIVE HUMIDITY IN PERCENT
WIND   - DIRECTION AND SPEED IN MILES PER HOUR (MPH)
VRB    - VARIABLE WIND DIRECTION
PRES   - MEAN SEA LEVEL PRESSURE IN INCHES OF MERCURY
         F - FALLING PRESSURE   R - RISING PRESSURE
         S - STEADY PRESSURE
VSB    - VISIBILITY IN MILES
HX     - HEAT INDEX IN FAHRENHEIT
WCI    - WIND CHILL INDEX IN FAHRENHEIT
N/A    - NOT AVAILABLE
AFB    - AIR FORCE BASE
         DAVIS-MONTHAN IS DAVIS-MONTHAN AIR FORCE BASE
CYN    - CANYON
MTNS   - MOUNTAINS
NCA    - NATIONAL CONSERVATION AREA
NR     - NEAR
VLY    - VALLEY
CONTL  - CONTINENTAL
PIMA CO DEQ - PIMA COUNTY DEPT OF ENVIRONMENTAL QUALITY



USA.gov is the U.S. government's official web portal to all federal, state and local government web resources and services.